Time,TemperatureF,DewpointF,PressureIn,WindDirection,WindDirectionDegrees,WindSpeedMPH,WindSpeedGustMPH,Humidity,HourlyPrecipIn,Conditions,Clouds,dailyrainin,SoftwareType,DateUTC
2013-03-06 00:00:00,30.2,24.8,30.07,NNE,15,0.0,0.0,80,0.00,OVC,,0.00,WeatherDisplay:10.37,2013-03-06 05:00:00,
2013-03-06 00:05:00,30.1,24.7,30.07,NNE,15,0.0,0.0,80,0.00,OVC,,0.00,WeatherDisplay:10.37,2013-03-06 05:05:00,
2013-03-06 00:10:00,30.2,24.8,30.07,NNE,15,0.0,0.0,80,0.00,OVC,,0.00,WeatherDisplay:10.37,2013-03-06 05:10:00,
2013-03-06 00:12:00,31.3,26.1,30.08,NNE,15,1.1,0.0,81,0.00,OVC,,0.00,WeatherDisplay:10.37,2013-03-06 05:12:00,
2013-03-06 00:17:00,30.6,25.5,30.08,NNE,15,0.0,0.0,81,0.00,OVC,,0.00,WeatherDisplay:10.37,2013-03-06 05:17:00,
2013-03-06 00:22:00,30.9,25.8,30.08,NNE,15,1.1,0.0,81,0.00,OVC,,0.00,WeatherDisplay:10.37,2013-03-06 05:22:00,
2013-03-06 00:27:00,31.3,26.1,30.08,NNE,15,1.1,0.0,81,0.00,OVC,,0.00,WeatherDisplay:10.37,2013-03-06 05:27:00,
2013-03-06 00:32:00,31.7,26.5,30.08,NNE,15,1.1,1.1,81,0.00,OVC,,0.00,WeatherDisplay:10.37,2013-03-06 05:32:00,
2013-03-06 00:37:00,31.8,26.6,30.08,NNE,15,1.1,1.1,81,0.00,OVC,,0.00,WeatherDisplay:10.37,2013-03-06 05:37:00,
2013-03-06 00:42:00,31.8,26.6,30.08,NNE,15,1.1,1.1,81,0.00,OVC,,0.00,WeatherDisplay:10.37,2013-03-06 05:42:00,
2013-03-06 00:47:00,31.9,26.7,30.08,NE,56,2.3,2.3,81,0.00,OVC,,0.00,WeatherDisplay:10.37,2013-03-06 05:47:00,
2013-03-06 00:52:00,32.4,27.2,30.08,ENE,67,3.5,3.5,81,0.00,OVC,,0.00,WeatherDisplay:10.37,2013-03-06 05:52:00,
2013-03-06 00:57:00,32.5,27.3,30.08,ENE,71,3.5,3.5,81,0.00,OVC,,0.00,WeatherDisplay:10.37,2013-03-06 05:57:00,
2013-03-06 01:02:00,32.7,27.5,30.08,ENE,58,4.0,4.0,81,0.00,OVC,,0.00,WeatherDisplay:10.37,2013-03-06 06:02:00,
2013-03-06 01:07:00,32.6,27.4,30.08,NE,47,3.5,3.5,81,0.00,OVC,,0.00,WeatherDisplay:10.37,2013-03-06 06:07:00,
2013-03-06 01:12:00,33.2,28.0,30.08,ENE,77,6.9,6.9,81,0.00,OVC,,0.00,WeatherDisplay:10.37,2013-03-06 06:12:00,
2013-03-06 01:17:00,33.0,27.8,30.08,East,86,3.5,3.5,81,0.00,OVC,,0.00,WeatherDisplay:10.37,2013-03-06 06:17:00,
2013-03-06 01:22:00,33.0,27.8,30.08,ENE,62,3.5,3.5,81,0.00,OVC,,0.00,WeatherDisplay:10.37,2013-03-06 06:22:00,
2013-03-06 01:27:00,32.8,27.6,30.08,NE,40,3.5,3.5,81,0.00,OVC,,0.00,WeatherDisplay:10.37,2013-03-06 06:27:00,
2013-03-06 01:32:00,32.4,27.2,30.08,NE,38,4.0,4.0,81,0.00,OVC,,0.00,WeatherDisplay:10.37,2013-03-06 06:32:00,
2013-03-06 01:37:00,32.0,26.8,30.08,NNE,31,2.3,2.3,81,0.00,OVC,,0.00,WeatherDisplay:10.37,2013-03-06 06:37:00,
2013-03-06 01:42:00,31.9,26.7,30.08,NNE,28,5.0,5.0,81,0.00,OVC,,0.00,WeatherDisplay:10.37,2013-03-06 06:42:00,
2013-03-06 01:47:00,31.7,26.5,30.08,NNE,19,4.6,4.6,81,0.00,OVC,,0.00,WeatherDisplay:10.37,2013-03-06 06:47:00,
2013-03-06 01:52:00,31.6,26.4,30.08,ENE,59,3.5,3.5,81,0.00,OVC,,0.00,WeatherDisplay:10.37,2013-03-06 06:52:00,
2013-03-06 01:57:00,31.5,26.3,30.08,NNE,22,3.5,3.5,81,0.00,OVC,,0.00,WeatherDisplay:10.37,2013-03-06 06:57:00,
2013-03-06 02:02:00,31.4,28.3,30.08,NNE,21,3.5,3.5,88,0.00,OVC,,0.00,WeatherDisplay:10.37,2013-03-06 07:02:00,
2013-03-06 02:07:00,31.3,28.2,30.08,NNE,21,3.5,3.5,88,0.00,OVC,,0.00,WeatherDisplay:10.37,2013-03-06 07:07:00,
2013-03-06 02:12:00,31.3,28.2,30.08,NNE,22,3.5,3.5,88,0.00,OVC,,0.00,WeatherDisplay:10.37,2013-03-06 07:12:00,
2013-03-06 02:17:00,31.3,28.2,30.08,NNE,29,3.5,3.5,88,0.00,OVC,,0.00,WeatherDisplay:10.37,2013-03-06 07:17:00,
2013-03-06 02:22:00,31.3,28.2,30.08,NNE,24,4.6,4.6,88,0.00,OVC,,0.00,WeatherDisplay:10.37,2013-03-06 07:22:00,
2013-03-06 02:27:00,31.3,28.2,30.08,NNE,20,3.5,3.5,88,0.00,OVC,,0.00,WeatherDisplay:10.37,2013-03-06 07:27:00,
2013-03-06 02:32:00,31.3,28.2,30.08,NNE,20,5.8,5.8,88,0.00,OVC,,0.00,WeatherDisplay:10.37,2013-03-06 07:32:00,
2013-03-06 02:37:00,31.4,28.3,30.08,NNE,19,4.0,4.0,88,0.00,OVC,,0.00,WeatherDisplay:10.37,2013-03-06 07:37:00,
2013-03-06 02:42:00,31.3,28.2,30.08,NNE,19,4.6,4.6,88,0.00,OVC,,0.00,WeatherDisplay:10.37,2013-03-06 07:42:00,
2013-03-06 02:47:00,31.1,28.0,30.08,NNE,19,3.5,3.5,88,0.00,OVC,,0.00,WeatherDisplay:10.37,2013-03-06 07:47:00,
2013-03-06 02:52:00,31.1,28.0,30.08,NNE,23,3.5,3.5,88,0.00,OVC,,0.00,WeatherDisplay:10.37,2013-03-06 07:52:00,
2013-03-06 02:57:00,30.9,27.8,30.08,NE,34,3.5,3.5,88,0.00,OVC,,0.00,WeatherDisplay:10.37,2013-03-06 07:57:00,
2013-03-06 03:02:00,30.8,26.5,30.07,NNE,15,3.5,3.5,84,0.00,OVC,,0.00,WeatherDisplay:10.37,2013-03-06 08:02:00,
2013-03-06 03:07:00,30.8,26.5,30.07,NNE,17,4.6,4.6,84,0.00,OVC,,0.00,WeatherDisplay:10.37,2013-03-06 08:07:00,
2013-03-06 03:12:00,30.8,26.5,30.07,NNE,16,3.5,3.5,84,0.00,OVC,,0.00,WeatherDisplay:10.37,2013-03-06 08:12:00,
2013-03-06 03:17:00,30.7,26.4,30.07,NNE,16,4.6,4.6,84,0.00,OVC,,0.00,WeatherDisplay:10.37,2013-03-06 08:17:00,
2013-03-06 03:22:00,30.7,26.4,30.07,NNE,13,6.9,6.9,84,0.00,OVC,,0.00,WeatherDisplay:10.37,2013-03-06 08:22:00,
2013-03-06 03:27:00,30.7,26.4,30.07,NE,51,3.0,3.0,84,0.00,OVC,,0.00,WeatherDisplay:10.37,2013-03-06 08:27:00,
2013-03-06 03:32:00,30.7,26.4,30.07,NE,42,3.5,3.5,84,0.00,OVC,,0.00,WeatherDisplay:10.37,2013-03-06 08:32:00,
2013-03-06 03:37:00,30.6,26.3,30.07,NNE,31,4.0,4.0,84,0.00,OVC,,0.00,WeatherDisplay:10.37,2013-03-06 08:37:00,
2013-03-06 03:42:00,30.5,26.2,30.07,NNE,12,6.9,6.9,84,0.00,OVC,,0.00,WeatherDisplay:10.37,2013-03-06 08:42:00,
2013-03-06 03:47:00,30.4,26.1,30.07,NNE,18,5.8,5.8,84,0.00,OVC,,0.00,WeatherDisplay:10.37,2013-03-06 08:47:00,
2013-03-06 03:52:00,30.5,26.2,30.07,ENE,69,4.6,4.6,84,0.00,OVC,,0.00,WeatherDisplay:10.37,2013-03-06 08:52:00,
2013-03-06 03:57:00,30.4,26.1,30.07,NE,51,5.8,5.8,84,0.00,OVC,,0.00,WeatherDisplay:10.37,2013-03-06 08:57:00,
2013-03-06 04:02:00,30.4,27.3,30.08,ENE,75,5.8,5.8,88,0.00,OVC,,0.00,WeatherDisplay:10.37,2013-03-06 09:02:00,
2013-03-06 04:07:00,30.4,27.3,30.08,ENE,71,4.6,4.6,88,0.00,OVC,,0.00,WeatherDisplay:10.37,2013-03-06 09:07:00,
2013-03-06 04:12:00,30.4,27.3,30.08,NNE,31,4.6,4.6,88,0.00,OVC,,0.00,WeatherDisplay:10.37,2013-03-06 09:12:00,
2013-03-06 04:17:00,30.3,27.2,30.08,NE,43,3.5,3.5,88,0.00,OVC,,0.00,WeatherDisplay:10.37,2013-03-06 09:17:00,
2013-03-06 04:22:00,30.2,26.5,30.09,NE,42,3.5,3.5,86,0.00,OVC,,0.00,WeatherDisplay:10.37,2013-03-06 09:22:00,
2013-03-06 04:27:00,30.3,26.6,30.09,NE,34,4.6,4.6,86,0.00,OVC,,0.00,WeatherDisplay:10.37,2013-03-06 09:27:00,
2013-03-06 04:32:00,30.3,26.6,30.09,ENE,67,5.0,5.0,86,0.00,OVC,,0.00,WeatherDisplay:10.37,2013-03-06 09:32:00,
2013-03-06 04:37:00,30.4,26.7,30.09,East,84,3.0,3.0,86,0.00,OVC,,0.00,WeatherDisplay:10.37,2013-03-06 09:37:00,
2013-03-06 04:42:00,30.4,26.7,30.09,NE,47,3.5,3.5,86,0.00,OVC,,0.00,WeatherDisplay:10.37,2013-03-06 09:42:00,
2013-03-06 04:47:00,30.5,26.8,30.09,NE,55,3.5,3.5,86,0.00,OVC,,0.00,WeatherDisplay:10.37,2013-03-06 09:47:00,
2013-03-06 04:52:00,30.8,27.1,30.09,ENE,78,6.9,6.9,86,0.00,OVC,,0.00,WeatherDisplay:10.37,2013-03-06 09:52:00,
2013-03-06 04:57:00,30.7,27.0,30.09,NE,48,3.0,3.0,86,0.00,OVC,,0.00,WeatherDisplay:10.37,2013-03-06 09:57:00,
2013-03-06 05:02:00,30.8,27.1,30.09,NE,47,4.0,4.0,86,0.00,OVC,,0.00,WeatherDisplay:10.37,2013-03-06 10:02:00,
2013-03-06 05:07:00,30.8,27.1,30.09,NNE,22,5.0,5.0,86,0.00,OVC,,0.00,WeatherDisplay:10.37,2013-03-06 10:07:00,
2013-03-06 05:12:00,30.8,27.1,30.09,NE,52,8.1,8.1,86,0.00,OVC,,0.00,WeatherDisplay:10.37,2013-03-06 10:12:00,
2013-03-06 05:17:00,30.7,27.0,30.09,NE,44,6.0,6.0,86,0.00,OVC,,0.00,WeatherDisplay:10.37,2013-03-06 10:17:00,
2013-03-06 05:22:00,30.8,27.1,30.10,East,80,5.8,5.8,86,0.00,OVC,,0.00,WeatherDisplay:10.37,2013-03-06 10:22:00,
2013-03-06 05:27:00,30.6,26.9,30.10,NE,49,4.6,4.6,86,0.00,OVC,,0.00,WeatherDisplay:10.37,2013-03-06 10:27:00,
2013-03-06 05:32:00,30.6,26.9,30.10,ENE,58,4.6,4.6,86,0.00,OVC,,0.00,WeatherDisplay:10.37,2013-03-06 10:32:00,
2013-03-06 05:37:00,30.6,26.9,30.10,NNE,31,4.0,4.5,86,0.00,OVC,,0.00,WeatherDisplay:10.37,2013-03-06 10:37:00,
2013-03-06 05:42:00,30.7,27.0,30.10,NE,46,9.2,9.2,86,0.00,OVC,,0.00,WeatherDisplay:10.37,2013-03-06 10:42:00,
2013-03-06 05:47:00,30.7,27.0,30.10,NE,44,4.6,4.6,86,0.00,OVC,,0.00,WeatherDisplay:10.37,2013-03-06 10:47:00,
2013-03-06 05:52:00,30.7,27.0,30.10,NNE,22,5.0,5.0,86,0.00,OVC,,0.00,WeatherDisplay:10.37,2013-03-06 10:52:00,
2013-03-06 05:57:00,30.7,27.0,30.10,NE,34,3.5,3.9,86,0.00,OVC,,0.00,WeatherDisplay:10.37,2013-03-06 10:57:00,
2013-03-06 06:02:00,30.7,26.4,30.10,NE,40,6.0,6.0,84,0.00,OVC,,0.00,WeatherDisplay:10.37,2013-03-06 11:02:00,
2013-03-06 06:07:00,31.0,26.7,30.10,ENE,75,8.1,8.1,84,0.00,OVC,,0.00,WeatherDisplay:10.37,2013-03-06 11:07:00,
2013-03-06 06:12:00,31.0,26.7,30.10,ENE,62,5.8,5.8,84,0.00,OVC,,0.00,WeatherDisplay:10.37,2013-03-06 11:12:00,
2013-03-06 06:17:00,31.0,26.7,30.10,ENE,63,4.6,4.6,84,0.00,OVC,,0.00,WeatherDisplay:10.37,2013-03-06 11:17:00,
2013-03-06 06:22:00,31.0,26.7,30.10,ENE,77,6.9,6.9,84,0.00,OVC,,0.00,WeatherDisplay:10.37,2013-03-06 11:22:00,
2013-03-06 06:27:00,30.9,26.6,30.10,ENE,67,6.9,6.9,84,0.00,OVC,,0.00,WeatherDisplay:10.37,2013-03-06 11:27:00,
2013-03-06 06:32:00,31.0,26.7,30.10,ENE,78,6.9,6.9,84,0.00,OVC,,0.00,WeatherDisplay:10.37,2013-03-06 11:32:00,
2013-03-06 06:37:00,30.9,26.6,30.10,East,84,8.1,8.1,84,0.00,OVC,,0.00,WeatherDisplay:10.37,2013-03-06 11:37:00,
2013-03-06 06:42:00,30.9,26.6,30.10,ENE,58,6.9,6.9,84,0.00,OVC,,0.00,WeatherDisplay:10.37,2013-03-06 11:42:00,
2013-03-06 06:47:00,30.9,26.6,30.10,ENE,63,4.0,4.0,84,0.00,OVC,,0.00,WeatherDisplay:10.37,2013-03-06 11:47:00,
2013-03-06 06:52:00,30.8,27.1,30.11,East,83,9.2,9.2,86,0.00,OVC,,0.00,WeatherDisplay:10.37,2013-03-06 11:52:00,
2013-03-06 06:57:00,30.9,27.2,30.11,ENE,71,8.1,8.1,86,0.00,OVC,,0.00,WeatherDisplay:10.37,2013-03-06 11:57:00,
2013-03-06 07:02:00,30.9,27.2,30.11,ENE,70,9.2,9.2,86,0.00,OVC,,0.00,WeatherDisplay:10.37,2013-03-06 12:02:00,
2013-03-06 07:07:00,31.0,27.3,30.11,East,85,8.1,8.1,86,0.00,OVC,,0.00,WeatherDisplay:10.37,2013-03-06 12:07:00,
2013-03-06 07:12:00,31.0,27.3,30.12,NE,45,6.9,6.9,86,0.00,-SN,,0.00,WeatherDisplay:10.37,2013-03-06 12:12:00,
2013-03-06 07:17:00,31.2,27.5,30.12,ENE,77,11.5,11.5,86,0.00,-SN,,0.00,WeatherDisplay:10.37,2013-03-06 12:17:00,
2013-03-06 07:22:00,31.6,27.9,30.12,ENE,71,13.8,13.8,86,0.00,-SN,,0.00,WeatherDisplay:10.37,2013-03-06 12:22:00,
2013-03-06 07:27:00,31.6,27.9,30.12,ENE,61,8.1,8.1,86,0.00,-SN,,0.00,WeatherDisplay:10.37,2013-03-06 12:27:00,
2013-03-06 07:32:00,32.0,28.3,30.12,NE,49,11.5,11.5,86,0.00,OVC,,0.00,WeatherDisplay:10.37,2013-03-06 12:32:00,
2013-03-06 07:37:00,32.1,28.4,30.12,ENE,75,9.2,9.2,86,0.00,OVC,,0.00,WeatherDisplay:10.37,2013-03-06 12:37:00,
2013-03-06 07:42:00,32.2,28.5,30.12,East,83,11.5,11.5,86,0.00,OVC,,0.00,WeatherDisplay:10.37,2013-03-06 12:42:00,
2013-03-06 07:47:00,32.0,28.3,30.12,NE,39,6.9,6.9,86,0.00,OVC,,0.00,WeatherDisplay:10.37,2013-03-06 12:47:00,
2013-03-06 07:52:00,32.1,28.4,30.13,NE,47,9.2,9.2,86,0.00,OVC,,0.00,WeatherDisplay:10.37,2013-03-06 12:52:00,
2013-03-06 07:57:00,32.1,28.4,30.13,ENE,78,21.9,21.9,86,0.00,OVC,,0.00,WeatherDisplay:10.37,2013-03-06 12:57:00,
2013-03-06 08:02:00,32.0,28.3,30.13,ENE,77,13.8,13.8,86,0.00,OVC,,0.00,WeatherDisplay:10.37,2013-03-06 13:02:00,
2013-03-06 08:07:00,32.1,28.4,30.13,East,79,9.2,9.2,86,0.00,OVC,,0.00,WeatherDisplay:10.37,2013-03-06 13:07:00,
2013-03-06 08:12:00,32.1,28.1,30.14,ENE,57,11.5,11.5,85,0.00,OVC,,0.00,WeatherDisplay:10.37,2013-03-06 13:12:00,
2013-03-06 08:17:00,32.1,28.1,30.14,ENE,58,13.0,13.0,85,0.00,OVC,,0.00,WeatherDisplay:10.37,2013-03-06 13:17:00,
2013-03-06 08:23:00,32.3,28.3,30.14,NE,52,12.7,12.7,85,0.00,OVC,,0.00,WeatherDisplay:10.37,2013-03-06 13:23:00,
2013-03-06 08:28:00,32.3,28.3,30.14,ENE,74,11.5,11.5,85,0.00,OVC,,0.00,WeatherDisplay:10.37,2013-03-06 13:28:00,
2013-03-06 08:33:00,32.3,28.3,30.14,ENE,69,10.4,10.4,85,0.00,OVC,,0.00,WeatherDisplay:10.37,2013-03-06 13:33:00,
2013-03-06 08:38:00,32.3,28.3,30.14,NE,48,6.9,6.9,85,0.00,OVC,,0.00,WeatherDisplay:10.37,2013-03-06 13:38:00,
2013-03-06 08:43:00,32.1,28.1,30.14,ENE,60,18.4,18.4,85,0.00,OVC,,0.00,WeatherDisplay:10.37,2013-03-06 13:43:00,
2013-03-06 08:48:00,31.9,27.9,30.14,ENE,61,16.1,16.1,85,0.00,OVC,,0.00,WeatherDisplay:10.37,2013-03-06 13:48:00,
2013-03-06 08:53:00,31.8,27.8,30.14,ENE,74,11.5,11.5,85,0.00,OVC,,0.00,WeatherDisplay:10.37,2013-03-06 13:53:00,
2013-03-06 08:58:00,31.7,27.7,30.14,East,80,15.0,15.0,85,0.00,OVC,,0.00,WeatherDisplay:10.37,2013-03-06 13:58:00,
2013-03-06 09:03:00,31.8,27.8,30.14,East,81,9.2,9.2,85,0.00,OVC,,0.00,WeatherDisplay:10.37,2013-03-06 14:03:00,
2013-03-06 09:08:00,32.0,28.0,30.14,ENE,65,8.1,8.1,85,0.00,OVC,,0.00,WeatherDisplay:10.37,2013-03-06 14:08:00,
2013-03-06 09:13:00,32.3,26.2,30.15,ENE,76,16.1,16.1,78,0.00,OVC,,0.00,WeatherDisplay:10.37,2013-03-06 14:13:00,
2013-03-06 09:18:00,32.3,26.2,30.15,ENE,78,10.4,10.4,78,0.00,OVC,,0.00,WeatherDisplay:10.37,2013-03-06 14:18:00,
2013-03-06 09:23:00,32.2,26.1,30.15,East,80,12.0,12.0,78,0.00,OVC,,0.00,WeatherDisplay:10.37,2013-03-06 14:23:00,
2013-03-06 09:28:00,32.1,26.0,30.15,ENE,70,15.0,15.0,78,0.00,OVC,,0.00,WeatherDisplay:10.37,2013-03-06 14:28:00,
2013-03-06 09:33:00,32.3,26.2,30.15,East,88,11.5,11.5,78,0.00,OVC,,0.00,WeatherDisplay:10.37,2013-03-06 14:33:00,
2013-03-06 09:38:00,33.0,26.9,30.15,ENE,67,11.5,11.5,78,0.00,OVC,,0.00,WeatherDisplay:10.37,2013-03-06 14:38:00,
2013-03-06 09:43:00,34.1,28.0,30.15,ENE,77,13.8,13.8,78,0.00,OVC,,0.00,WeatherDisplay:10.37,2013-03-06 14:43:00,
2013-03-06 09:48:00,34.4,28.2,30.15,East,79,9.2,9.2,78,0.00,OVC,,0.00,WeatherDisplay:10.37,2013-03-06 14:48:00,
2013-03-06 09:53:00,33.6,27.5,30.15,NE,54,9.2,9.2,78,0.00,OVC,,0.00,WeatherDisplay:10.37,2013-03-06 14:53:00,
2013-03-06 09:58:00,33.1,27.0,30.15,NE,51,13.0,13.0,78,0.00,OVC,,0.00,WeatherDisplay:10.37,2013-03-06 14:58:00,
2013-03-06 10:03:00,33.1,27.0,30.15,ENE,65,15.0,15.0,78,0.00,OVC,,0.00,WeatherDisplay:10.37,2013-03-06 15:03:00,
2013-03-06 10:08:00,32.7,26.6,30.15,East,80,12.7,12.7,78,0.00,OVC,,0.00,WeatherDisplay:10.37,2013-03-06 15:08:00,
2013-03-06 10:13:00,32.5,24.5,30.14,ENE,68,11.5,11.5,72,0.00,OVC,,0.00,WeatherDisplay:10.37,2013-03-06 15:13:00,
2013-03-06 10:18:00,32.5,24.5,30.14,ENE,67,11.5,11.5,72,0.00,OVC,,0.00,WeatherDisplay:10.37,2013-03-06 15:18:00,
2013-03-06 10:23:00,33.1,25.1,30.14,ENE,67,9.2,9.2,72,0.00,OVC,,0.00,WeatherDisplay:10.37,2013-03-06 15:23:00,
2013-03-06 10:28:00,33.1,25.1,30.14,East,85,17.3,17.3,72,0.00,OVC,,0.00,WeatherDisplay:10.37,2013-03-06 15:28:00,
2013-03-06 10:33:00,33.0,25.0,30.14,ENE,76,11.5,11.5,72,0.00,OVC,,0.00,WeatherDisplay:10.37,2013-03-06 15:33:00,
2013-03-06 10:38:00,33.0,25.0,30.14,North,356,10.4,10.4,72,0.00,OVC,,0.00,WeatherDisplay:10.37,2013-03-06 15:38:00,
2013-03-06 10:43:00,32.8,24.8,30.14,East,81,10.4,10.4,72,0.00,OVC,,0.00,WeatherDisplay:10.37,2013-03-06 15:43:00,
2013-03-06 10:48:00,32.9,24.9,30.14,NE,51,5.8,5.8,72,0.00,OVC,,0.00,WeatherDisplay:10.37,2013-03-06 15:48:00,
2013-03-06 10:53:00,33.1,25.1,30.14,ENE,76,12.7,12.7,72,0.00,OVC,,0.00,WeatherDisplay:10.37,2013-03-06 15:53:00,
2013-03-06 10:58:00,32.8,24.8,30.14,ENE,65,13.8,13.8,72,0.00,OVC,,0.00,WeatherDisplay:10.37,2013-03-06 15:58:00,
2013-03-06 11:03:00,32.6,24.6,30.14,ENE,71,10.0,10.0,72,0.00,OVC,,0.00,WeatherDisplay:10.37,2013-03-06 16:03:00,
2013-03-06 11:08:00,32.8,24.8,30.14,ENE,75,9.2,9.2,72,0.00,OVC,,0.00,WeatherDisplay:10.37,2013-03-06 16:08:00,
2013-03-06 11:13:00,33.7,22.8,30.15,ENE,75,11.5,11.5,64,0.00,OVC,,0.00,WeatherDisplay:10.37,2013-03-06 16:13:00,
2013-03-06 11:18:00,33.9,23.0,30.15,ENE,61,7.0,7.0,64,0.00,OVC,,0.00,WeatherDisplay:10.37,2013-03-06 16:18:00,
2013-03-06 11:23:00,33.2,22.3,30.15,NNE,32,11.5,11.5,64,0.00,OVC,,0.00,WeatherDisplay:10.37,2013-03-06 16:23:00,
2013-03-06 11:28:00,33.0,22.1,30.15,NNE,21,9.2,9.2,64,0.00,OVC,,0.00,WeatherDisplay:10.37,2013-03-06 16:28:00,
2013-03-06 11:33:00,33.3,22.4,30.15,ENE,72,10.4,10.4,64,0.00,OVC,,0.00,WeatherDisplay:10.37,2013-03-06 16:33:00,
2013-03-06 11:38:00,33.6,22.7,30.15,ENE,70,5.8,5.8,64,0.00,OVC,,0.00,WeatherDisplay:10.37,2013-03-06 16:38:00,
2013-03-06 11:43:00,33.5,22.6,30.15,NNE,28,4.0,4.0,64,0.00,OVC,,0.00,WeatherDisplay:10.37,2013-03-06 16:43:00,
2013-03-06 11:48:00,33.4,22.5,30.15,ENE,78,5.8,5.8,64,0.00,OVC,,0.00,WeatherDisplay:10.37,2013-03-06 16:48:00,
2013-03-06 11:53:00,33.4,22.5,30.15,ENE,70,8.0,8.0,64,0.00,OVC,,0.00,WeatherDisplay:10.37,2013-03-06 16:53:00,
2013-03-06 11:58:00,33.3,22.4,30.15,NE,48,8.1,8.1,64,0.00,OVC,,0.00,WeatherDisplay:10.37,2013-03-06 16:58:00,
2013-03-06 12:03:00,33.4,22.5,30.15,ENE,59,8.1,8.1,64,0.00,OVC,,0.00,WeatherDisplay:10.37,2013-03-06 17:03:00,
2013-03-06 12:08:00,33.6,22.7,30.15,ENE,69,8.1,8.1,64,0.00,OVC,,0.00,WeatherDisplay:10.37,2013-03-06 17:08:00,
2013-03-06 12:13:00,33.5,21.5,30.14,NE,35,11.5,11.5,61,0.00,OVC,,0.00,WeatherDisplay:10.37,2013-03-06 17:13:00,
2013-03-06 12:18:00,33.9,21.9,30.14,ENE,77,4.6,4.6,61,0.00,OVC,,0.00,WeatherDisplay:10.37,2013-03-06 17:18:00,
2013-03-06 12:23:00,33.7,21.7,30.14,ENE,59,8.0,8.0,61,0.00,OVC,,0.00,WeatherDisplay:10.37,2013-03-06 17:23:00,
2013-03-06 12:28:00,33.5,21.5,30.14,NE,53,11.5,11.5,61,0.00,OVC,,0.00,WeatherDisplay:10.37,2013-03-06 17:28:00,
2013-03-06 12:33:00,33.3,21.3,30.14,ENE,73,8.1,8.1,61,0.00,OVC,,0.00,WeatherDisplay:10.37,2013-03-06 17:33:00,
2013-03-06 12:38:00,33.0,21.0,30.14,NE,53,11.5,11.5,61,0.00,OVC,,0.00,WeatherDisplay:10.37,2013-03-06 17:38:00,
2013-03-06 12:43:00,32.9,20.9,30.14,ENE,75,9.0,9.0,61,0.00,OVC,,0.00,WeatherDisplay:10.37,2013-03-06 17:43:00,
2013-03-06 12:48:00,32.6,20.6,30.14,NNE,33,11.5,11.5,61,0.00,OVC,,0.00,WeatherDisplay:10.37,2013-03-06 17:48:00,
2013-03-06 12:53:00,32.8,20.8,30.14,NNE,31,6.0,6.0,61,0.00,OVC,,0.00,WeatherDisplay:10.37,2013-03-06 17:53:00,
2013-03-06 12:58:00,32.4,20.4,30.14,ENE,74,10.4,10.4,61,0.00,OVC,,0.00,WeatherDisplay:10.37,2013-03-06 17:58:00,
2013-03-06 13:03:00,32.3,25.3,30.13,ENE,74,7.0,7.0,75,0.00,OVC,,0.00,WeatherDisplay:10.37,2013-03-06 18:03:00,
2013-03-06 13:08:00,33.0,25.9,30.13,NE,50,5.8,5.8,75,0.00,OVC,,0.00,WeatherDisplay:10.37,2013-03-06 18:08:00,
2013-03-06 13:13:00,32.4,25.4,30.13,East,81,8.1,8.1,75,0.00,OVC,,0.00,WeatherDisplay:10.37,2013-03-06 18:13:00,
2013-03-06 13:18:00,32.3,25.3,30.13,ENE,67,8.1,8.1,75,0.00,OVC,,0.00,WeatherDisplay:10.37,2013-03-06 18:18:00,
2013-03-06 13:23:00,32.2,25.2,30.13,ENE,61,5.8,5.8,75,0.00,OVC,,0.00,WeatherDisplay:10.37,2013-03-06 18:23:00,
2013-03-06 13:28:00,32.1,25.1,30.13,ENE,73,11.5,11.5,75,0.00,OVC,,0.00,WeatherDisplay:10.37,2013-03-06 18:28:00,
2013-03-06 13:33:00,32.5,25.1,30.12,NE,35,5.8,5.8,74,0.00,OVC,,0.00,WeatherDisplay:10.37,2013-03-06 18:33:00,
2013-03-06 13:38:00,32.2,24.8,30.12,ENE,64,8.1,8.1,74,0.00,OVC,,0.00,WeatherDisplay:10.37,2013-03-06 18:38:00,
2013-03-06 13:43:00,32.3,24.9,30.12,ENE,75,11.0,11.0,74,0.00,OVC,,0.00,WeatherDisplay:10.37,2013-03-06 18:43:00,
2013-03-06 13:48:00,32.3,24.9,30.12,ENE,58,11.5,11.5,74,0.00,OVC,,0.00,WeatherDisplay:10.37,2013-03-06 18:48:00,
2013-03-06 13:53:00,32.5,25.1,30.12,East,87,10.4,10.4,74,0.00,OVC,,0.00,WeatherDisplay:10.37,2013-03-06 18:53:00,
2013-03-06 13:58:00,32.5,25.1,30.12,NNE,26,8.1,8.1,74,0.00,OVC,,0.00,WeatherDisplay:10.37,2013-03-06 18:58:00,
2013-03-06 14:03:00,32.5,23.5,30.13,East,83,11.5,11.5,69,0.00,OVC,,0.00,WeatherDisplay:10.37,2013-03-06 19:03:00,
2013-03-06 14:08:00,32.8,23.7,30.13,ENE,71,8.1,8.1,69,0.00,OVC,,0.00,WeatherDisplay:10.37,2013-03-06 19:08:00,
2013-03-06 14:13:00,33.3,24.2,30.13,ENE,76,9.2,9.2,69,0.00,OVC,,0.00,WeatherDisplay:10.37,2013-03-06 19:13:00,
2013-03-06 14:18:00,33.3,24.2,30.13,ENE,66,5.8,5.8,69,0.00,OVC,,0.00,WeatherDisplay:10.37,2013-03-06 19:18:00,
2013-03-06 14:23:00,31.5,22.5,30.13,NNE,29,11.5,11.5,69,0.00,OVC,,0.00,WeatherDisplay:10.37,2013-03-06 19:23:00,
2013-03-06 14:28:00,31.3,22.3,30.13,NNE,32,8.1,8.1,69,0.00,OVC,,0.00,WeatherDisplay:10.37,2013-03-06 19:28:00,
2013-03-06 14:33:00,30.8,21.8,30.13,NNE,28,8.1,8.1,69,0.00,OVC,,0.00,WeatherDisplay:10.37,2013-03-06 19:33:00,
2013-03-06 14:38:00,31.3,22.3,30.13,NE,42,5.8,5.8,69,0.00,OVC,,0.00,WeatherDisplay:10.37,2013-03-06 19:38:00,
2013-03-06 14:43:00,31.7,22.7,30.13,ENE,71,3.5,3.5,69,0.00,OVC,,0.00,WeatherDisplay:10.37,2013-03-06 19:43:00,
2013-03-06 14:48:00,32.1,23.1,30.13,ENE,69,6.9,6.9,69,0.00,OVC,,0.00,WeatherDisplay:10.37,2013-03-06 19:48:00,
2013-03-06 14:53:00,32.5,23.5,30.13,ENE,65,8.1,8.2,69,0.00,OVC,,0.00,WeatherDisplay:10.37,2013-03-06 19:53:00,
2013-03-06 14:58:00,33.2,24.1,30.13,ENE,76,8.0,8.0,69,0.00,OVC,,0.00,WeatherDisplay:10.37,2013-03-06 19:58:00,
2013-03-06 15:03:00,33.3,24.2,30.13,ENE,74,13.8,13.8,69,0.00,OVC,,0.00,WeatherDisplay:10.37,2013-03-06 20:03:00,
2013-03-06 15:08:00,33.1,24.0,30.13,East,84,13.8,13.8,69,0.00,OVC,,0.00,WeatherDisplay:10.37,2013-03-06 20:08:00,
2013-03-06 15:13:00,33.3,24.2,30.13,ENE,69,15.0,15.0,69,0.00,OVC,,0.00,WeatherDisplay:10.37,2013-03-06 20:13:00,
2013-03-06 15:18:00,33.3,24.2,30.13,ENE,76,13.8,13.8,69,0.00,OVC,,0.00,WeatherDisplay:10.37,2013-03-06 20:18:00,
2013-03-06 15:23:00,33.2,24.1,30.13,ENE,72,15.0,15.0,69,0.00,OVC,,0.00,WeatherDisplay:10.37,2013-03-06 20:23:00,
2013-03-06 15:28:00,33.2,24.1,30.13,NE,55,11.5,11.5,69,0.00,OVC,,0.00,WeatherDisplay:10.37,2013-03-06 20:28:00,
2013-03-06 15:33:00,32.5,23.5,30.13,ENE,65,16.0,16.0,69,0.00,OVC,,0.00,WeatherDisplay:10.37,2013-03-06 20:33:00,
2013-03-06 15:38:00,31.8,22.8,30.13,ENE,66,15.0,15.0,69,0.00,OVC,,0.00,WeatherDisplay:10.37,2013-03-06 20:38:00,
2013-03-06 15:43:00,32.1,23.1,30.13,ENE,72,6.0,6.0,69,0.00,OVC,,0.00,WeatherDisplay:10.37,2013-03-06 20:43:00,
2013-03-06 15:48:00,32.3,23.3,30.13,ENE,73,5.8,5.8,69,0.00,OVC,,0.00,WeatherDisplay:10.37,2013-03-06 20:48:00,
2013-03-06 15:53:00,32.2,23.2,30.13,ENE,65,8.1,8.1,69,0.00,OVC,,0.00,WeatherDisplay:10.37,2013-03-06 20:53:00,
2013-03-06 15:58:00,32.4,23.4,30.13,ENE,75,8.1,8.1,69,0.00,OVC,,0.00,WeatherDisplay:10.37,2013-03-06 20:58:00,
2013-03-06 16:03:00,32.3,23.3,30.13,ENE,66,10.4,10.4,69,0.00,OVC,,0.00,WeatherDisplay:10.37,2013-03-06 21:03:00,
2013-03-06 16:08:00,32.3,23.3,30.13,NE,52,5.0,5.0,69,0.00,OVC,,0.00,WeatherDisplay:10.37,2013-03-06 21:08:00,
2013-03-06 16:14:00,32.1,20.9,30.14,ENE,70,11.5,11.5,63,0.00,OVC,,0.00,WeatherDisplay:10.37,2013-03-06 21:14:00,
2013-03-06 16:19:00,31.9,20.7,30.14,ENE,74,11.0,11.0,63,0.00,OVC,,0.00,WeatherDisplay:10.37,2013-03-06 21:19:00,
2013-03-06 16:24:00,31.9,20.7,30.14,NE,34,8.1,8.1,63,0.00,OVC,,0.00,WeatherDisplay:10.37,2013-03-06 21:24:00,
2013-03-06 16:29:00,32.2,21.0,30.14,ENE,70,11.5,11.5,63,0.00,OVC,,0.00,WeatherDisplay:10.37,2013-03-06 21:29:00,
2013-03-06 16:34:00,32.2,21.0,30.14,East,83,11.5,11.5,63,0.00,OVC,,0.00,WeatherDisplay:10.37,2013-03-06 21:34:00,
2013-03-06 16:39:00,32.3,21.1,30.14,East,90,12.7,12.7,63,0.00,OVC,,0.00,WeatherDisplay:10.37,2013-03-06 21:39:00,
2013-03-06 16:44:00,32.2,21.0,30.14,ENE,74,8.1,8.1,63,0.00,OVC,,0.00,WeatherDisplay:10.37,2013-03-06 21:44:00,
2013-03-06 16:49:00,32.2,21.0,30.14,ENE,71,8.1,8.1,63,0.00,OVC,,0.00,WeatherDisplay:10.37,2013-03-06 21:49:00,
2013-03-06 16:54:00,31.7,20.5,30.14,East,79,11.5,11.5,63,0.00,OVC,,0.00,WeatherDisplay:10.37,2013-03-06 21:54:00,
2013-03-06 16:59:00,31.0,19.9,30.14,ENE,58,11.5,11.5,63,0.00,OVC,,0.00,WeatherDisplay:10.37,2013-03-06 21:59:00,
2013-03-06 17:04:00,31.1,23.1,30.15,ENE,58,9.2,9.2,72,0.00,OVC,,0.00,WeatherDisplay:10.37,2013-03-06 22:04:00,
2013-03-06 17:09:00,31.4,23.4,30.15,East,81,9.2,9.2,72,0.00,OVC,,0.00,WeatherDisplay:10.37,2013-03-06 22:09:00,
2013-03-06 17:14:00,31.4,23.4,30.15,ENE,69,9.2,9.2,72,0.00,OVC,,0.00,WeatherDisplay:10.37,2013-03-06 22:14:00,
2013-03-06 17:19:00,31.5,23.5,30.15,East,80,17.3,17.3,72,0.00,OVC,,0.00,WeatherDisplay:10.37,2013-03-06 22:19:00,
2013-03-06 17:24:00,31.5,23.5,30.15,ENE,65,8.0,8.0,72,0.00,OVC,,0.00,WeatherDisplay:10.37,2013-03-06 22:24:00,
2013-03-06 17:29:00,31.4,23.4,30.15,ENE,67,11.5,11.5,72,0.00,OVC,,0.00,WeatherDisplay:10.37,2013-03-06 22:29:00,
2013-03-06 17:34:00,31.4,23.4,30.15,ENE,73,11.0,11.0,72,0.00,OVC,,0.00,WeatherDisplay:10.37,2013-03-06 22:34:00,
2013-03-06 17:39:00,31.5,23.5,30.15,NE,50,12.7,12.7,72,0.00,OVC,,0.00,WeatherDisplay:10.37,2013-03-06 22:39:00,
2013-03-06 17:44:00,31.5,24.2,30.16,ENE,69,11.5,11.5,74,0.00,OVC,,0.00,WeatherDisplay:10.37,2013-03-06 22:44:00,
2013-03-06 17:49:00,31.3,24.0,30.16,ENE,72,11.0,11.0,74,0.00,OVC,,0.00,WeatherDisplay:10.37,2013-03-06 22:49:00,
2013-03-06 17:54:00,31.3,24.0,30.16,East,83,12.7,12.7,74,0.00,OVC,,0.00,WeatherDisplay:10.37,2013-03-06 22:54:00,
2013-03-06 17:59:00,31.3,24.0,30.16,ENE,59,12.7,12.7,74,0.00,OVC,,0.00,WeatherDisplay:10.37,2013-03-06 22:59:00,
2013-03-06 18:04:00,31.2,24.8,30.16,ENE,73,10.4,10.4,77,0.00,OVC,,0.00,WeatherDisplay:10.37,2013-03-06 23:04:00,
2013-03-06 18:09:00,31.2,24.8,30.16,ENE,78,12.7,12.7,77,0.00,OVC,,0.00,WeatherDisplay:10.37,2013-03-06 23:09:00,
2013-03-06 18:14:00,31.2,24.8,30.16,ENE,78,10.0,10.0,77,0.00,OVC,,0.00,WeatherDisplay:10.37,2013-03-06 23:14:00,
2013-03-06 18:19:00,31.1,24.7,30.16,ENE,63,9.2,9.2,77,0.00,OVC,,0.00,WeatherDisplay:10.37,2013-03-06 23:19:00,
2013-03-06 18:24:00,31.2,24.8,30.16,ENE,74,8.0,8.0,77,0.00,OVC,,0.00,WeatherDisplay:10.37,2013-03-06 23:24:00,
2013-03-06 18:29:00,31.3,24.9,30.16,ENE,72,11.5,11.5,77,0.00,OVC,,0.00,WeatherDisplay:10.37,2013-03-06 23:29:00,
2013-03-06 18:34:00,31.1,24.7,30.16,ENE,66,8.0,8.0,77,0.00,OVC,,0.00,WeatherDisplay:10.37,2013-03-06 23:34:00,
2013-03-06 18:39:00,31.1,24.7,30.16,NE,41,4.6,4.6,77,0.00,OVC,,0.00,WeatherDisplay:10.37,2013-03-06 23:39:00,
2013-03-06 18:44:00,31.0,23.7,30.18,NE,56,9.2,9.2,74,0.00,OVC,,0.00,WeatherDisplay:10.37,2013-03-06 23:44:00,
2013-03-06 18:49:00,31.0,23.7,30.18,NNE,30,11.5,11.5,74,0.00,OVC,,0.00,WeatherDisplay:10.37,2013-03-06 23:49:00,
2013-03-06 18:54:00,31.0,24.6,30.16,NE,44,11.5,11.5,77,0.00,OVC,,0.00,WeatherDisplay:10.37,2013-03-06 23:54:00,
2013-03-06 18:59:00,30.9,24.5,30.16,ENE,69,11.5,11.5,77,0.00,OVC,,0.00,WeatherDisplay:10.37,2013-03-06 23:59:00,
2013-03-06 19:04:00,30.8,26.8,30.18,NE,35,11.5,11.5,85,0.00,OVC,,0.00,WeatherDisplay:10.37,2013-03-07 00:04:00,
2013-03-06 19:09:00,30.7,26.7,30.18,ENE,65,8.1,8.1,85,0.00,OVC,,0.00,WeatherDisplay:10.37,2013-03-07 00:09:00,
2013-03-06 19:14:00,30.7,26.7,30.18,NNE,33,10.4,10.4,85,0.00,OVC,,0.00,WeatherDisplay:10.37,2013-03-07 00:14:00,
2013-03-06 19:19:00,30.5,26.5,30.18,ENE,67,3.5,3.5,85,0.00,OVC,,0.00,WeatherDisplay:10.37,2013-03-07 00:19:00,
2013-03-06 19:24:00,30.4,26.4,30.18,NNE,25,5.0,5.0,85,0.00,OVC,,0.00,WeatherDisplay:10.37,2013-03-07 00:24:00,
2013-03-06 19:29:00,30.3,26.3,30.18,NE,49,4.6,4.6,85,0.00,OVC,,0.00,WeatherDisplay:10.37,2013-03-07 00:29:00,
2013-03-06 19:34:00,30.2,26.2,30.18,NNE,23,4.6,4.6,85,0.00,OVC,,0.00,WeatherDisplay:10.37,2013-03-07 00:34:00,
2013-03-06 19:39:00,30.1,26.1,30.18,NNE,18,6.9,6.9,85,0.00,OVC,,0.00,WeatherDisplay:10.37,2013-03-07 00:39:00,
2013-03-06 19:44:00,30.1,26.1,30.18,NNE,22,10.4,10.4,85,0.00,OVC,,0.00,WeatherDisplay:10.37,2013-03-07 00:44:00,
2013-03-06 19:49:00,30.1,26.1,30.18,ENE,72,4.6,4.6,85,0.00,OVC,,0.00,WeatherDisplay:10.37,2013-03-07 00:49:00,
2013-03-06 19:54:00,30.0,26.0,30.18,NNE,33,6.9,6.9,85,0.00,OVC,,0.00,WeatherDisplay:10.37,2013-03-07 00:54:00,
2013-03-06 19:59:00,29.9,25.9,30.18,NNE,28,8.1,8.1,85,0.00,OVC,,0.00,WeatherDisplay:10.37,2013-03-07 00:59:00,
2013-03-06 20:04:00,29.9,22.9,30.16,ENE,73,9.2,9.2,75,0.00,OVC,,0.00,WeatherDisplay:10.37,2013-03-07 01:04:00,
2013-03-06 20:09:00,29.8,22.8,30.16,NNE,19,9.2,9.2,75,0.00,OVC,,0.00,WeatherDisplay:10.37,2013-03-07 01:09:00,
2013-03-06 20:14:00,29.9,22.9,30.16,ENE,71,5.8,5.8,75,0.00,OVC,,0.00,WeatherDisplay:10.37,2013-03-07 01:14:00,
2013-03-06 20:19:00,29.8,22.8,30.16,ENE,77,9.2,9.2,75,0.00,OVC,,0.00,WeatherDisplay:10.37,2013-03-07 01:19:00,
2013-03-06 20:24:00,29.9,22.9,30.16,NE,34,5.8,5.8,75,0.00,OVC,,0.00,WeatherDisplay:10.37,2013-03-07 01:24:00,
2013-03-06 20:29:00,29.9,22.9,30.16,NNE,30,8.1,8.1,75,0.00,OVC,,0.00,WeatherDisplay:10.37,2013-03-07 01:29:00,
2013-03-06 20:34:00,29.9,22.9,30.16,NNE,16,8.0,8.0,75,0.00,OVC,,0.00,WeatherDisplay:10.37,2013-03-07 01:34:00,
2013-03-06 20:39:00,29.8,22.8,30.16,East,81,8.1,8.1,75,0.00,OVC,,0.00,WeatherDisplay:10.37,2013-03-07 01:39:00,
2013-03-06 20:44:00,29.8,22.8,30.16,NE,48,5.8,5.8,75,0.00,OVC,,0.00,WeatherDisplay:10.37,2013-03-07 01:44:00,
2013-03-06 20:49:00,29.6,22.6,30.16,NE,55,4.6,4.6,75,0.00,OVC,,0.00,WeatherDisplay:10.37,2013-03-07 01:49:00,
2013-03-06 20:54:00,29.5,22.6,30.16,NE,43,5.8,5.8,75,0.00,OVC,,0.00,WeatherDisplay:10.37,2013-03-07 01:54:00,
2013-03-06 20:59:00,29.5,22.6,30.16,NNE,29,5.8,5.8,75,0.00,OVC,,0.00,WeatherDisplay:10.37,2013-03-07 01:59:00,
2013-03-06 21:04:00,29.4,22.5,30.16,ENE,64,8.1,8.1,75,0.00,OVC,,0.00,WeatherDisplay:10.37,2013-03-07 02:04:00,
2013-03-06 21:09:00,29.3,22.4,30.16,ENE,72,5.8,5.8,75,0.00,OVC,,0.00,WeatherDisplay:10.37,2013-03-07 02:09:00,
2013-03-06 21:14:00,29.1,20.9,30.16,NE,48,8.0,8.0,71,0.00,OVC,,0.00,WeatherDisplay:10.37,2013-03-07 02:14:00,
2013-03-06 21:19:00,29.1,20.9,30.16,NNE,31,5.8,5.8,71,0.00,OVC,,0.00,WeatherDisplay:10.37,2013-03-07 02:19:00,
2013-03-06 21:24:00,29.2,21.0,30.16,NE,35,5.8,5.8,71,0.00,OVC,,0.00,WeatherDisplay:10.37,2013-03-07 02:24:00,
2013-03-06 21:29:00,29.1,20.9,30.16,NE,56,10.4,10.4,71,0.00,OVC,,0.00,WeatherDisplay:10.37,2013-03-07 02:29:00,
2013-03-06 21:34:00,29.1,20.9,30.16,East,84,9.0,9.0,71,0.00,OVC,,0.00,WeatherDisplay:10.37,2013-03-07 02:34:00,
2013-03-06 21:39:00,29.1,20.9,30.16,NE,42,9.2,9.2,71,0.00,OVC,,0.00,WeatherDisplay:10.37,2013-03-07 02:39:00,
2013-03-06 21:44:00,29.1,20.9,30.16,ENE,75,9.2,9.2,71,0.00,OVC,,0.00,WeatherDisplay:10.37,2013-03-07 02:44:00,
2013-03-06 21:49:00,28.9,20.7,30.16,NE,44,6.9,6.9,71,0.00,OVC,,0.00,WeatherDisplay:10.37,2013-03-07 02:49:00,
2013-03-06 21:54:00,29.0,20.8,30.16,NNE,29,11.5,11.5,71,0.00,OVC,,0.00,WeatherDisplay:10.37,2013-03-07 02:54:00,
2013-03-06 21:59:00,28.7,20.5,30.16,ENE,66,8.1,8.1,71,0.00,OVC,,0.00,WeatherDisplay:10.37,2013-03-07 02:59:00,
2013-03-06 22:04:00,28.6,22.6,30.14,NNE,32,5.0,5.0,78,0.00,OVC,,0.00,WeatherDisplay:10.37,2013-03-07 03:04:00,
2013-03-06 22:09:00,28.6,22.6,30.14,NNE,26,4.6,4.6,78,0.00,OVC,,0.00,WeatherDisplay:10.37,2013-03-07 03:09:00,
2013-03-06 22:14:00,28.6,22.6,30.14,NNE,15,6.9,6.9,78,0.00,OVC,,0.00,WeatherDisplay:10.37,2013-03-07 03:14:00,
2013-03-06 22:19:00,28.6,22.6,30.14,NNE,16,5.8,5.8,78,0.00,OVC,,0.00,WeatherDisplay:10.37,2013-03-07 03:19:00,
2013-03-06 22:24:00,28.5,22.5,30.14,NE,36,5.8,5.8,78,0.00,OVC,,0.00,WeatherDisplay:10.37,2013-03-07 03:24:00,
2013-03-06 22:29:00,28.5,22.5,30.14,North,3,8.1,8.1,78,0.00,OVC,,0.00,WeatherDisplay:10.37,2013-03-07 03:29:00,
2013-03-06 22:34:00,28.3,22.3,30.14,NNE,13,6.9,6.9,78,0.00,OVC,,0.00,WeatherDisplay:10.37,2013-03-07 03:34:00,
2013-03-06 22:39:00,28.2,22.2,30.14,NNE,26,11.5,11.5,78,0.00,OVC,,0.00,WeatherDisplay:10.37,2013-03-07 03:39:00,
2013-03-06 22:44:00,28.2,22.2,30.14,NNE,26,8.1,8.1,78,0.00,OVC,,0.00,WeatherDisplay:10.37,2013-03-07 03:44:00,
2013-03-06 22:49:00,28.3,22.3,30.14,NE,53,6.0,6.0,78,0.00,OVC,,0.00,WeatherDisplay:10.37,2013-03-07 03:49:00,
2013-03-06 22:54:00,28.2,22.2,30.14,North,9,8.1,8.1,78,0.00,OVC,,0.00,WeatherDisplay:10.37,2013-03-07 03:54:00,
2013-03-06 22:59:00,28.1,22.1,30.14,NE,35,6.9,6.9,78,0.00,OVC,,0.00,WeatherDisplay:10.37,2013-03-07 03:59:00,
2013-03-06 23:04:00,28.2,22.2,30.14,NNE,16,9.2,9.2,78,0.00,OVC,,0.00,WeatherDisplay:10.37,2013-03-07 04:04:00,
2013-03-06 23:09:00,28.1,22.1,30.14,ENE,59,5.0,5.0,78,0.00,OVC,,0.00,WeatherDisplay:10.37,2013-03-07 04:09:00,
2013-03-06 23:14:00,28.1,22.1,30.14,NNE,25,9.2,9.2,78,0.00,OVC,,0.00,WeatherDisplay:10.37,2013-03-07 04:14:00,
2013-03-06 23:19:00,28.1,22.1,30.14,NNE,28,5.8,5.8,78,0.00,OVC,,0.00,WeatherDisplay:10.37,2013-03-07 04:19:00,
2013-03-06 23:24:00,28.1,22.1,30.14,North,5,8.0,8.0,78,0.00,OVC,,0.00,WeatherDisplay:10.37,2013-03-07 04:24:00,
2013-03-06 23:29:00,28.0,22.0,30.14,NE,43,4.0,4.6,78,0.00,OVC,,0.00,WeatherDisplay:10.37,2013-03-07 04:29:00,
2013-03-06 23:34:00,27.9,21.9,30.14,NNE,32,9.0,9.0,78,0.00,OVC,,0.00,WeatherDisplay:10.37,2013-03-07 04:34:00,
2013-03-06 23:39:00,27.8,21.8,30.14,NNE,14,5.8,5.8,78,0.00,OVC,,0.00,WeatherDisplay:10.37,2013-03-07 04:39:00,
2013-03-06 23:44:00,27.7,21.7,30.14,NNE,32,6.9,6.9,78,0.00,OVC,,0.00,WeatherDisplay:10.37,2013-03-07 04:44:00,
2013-03-06 23:49:00,27.7,21.7,30.14,NNE,25,4.6,4.6,78,0.00,OVC,,0.00,WeatherDisplay:10.37,2013-03-07 04:49:00,
2013-03-06 23:54:00,27.6,21.6,30.14,NNE,19,10.4,10.4,78,0.00,OVC,,0.00,WeatherDisplay:10.37,2013-03-07 04:54:00,
2013-03-06 23:59:00,27.5,21.5,30.14,North,7,5.8,5.8,78,0.00,OVC,,0.00,WeatherDisplay:10.37,2013-03-07 04:59:00,